| time (UTC) | temp F | wind direction | speed MPH | gust MPH | rain 1hr in | rain 24hr in | rain mn in | humidity % | barometer mb |
| 20260508163211 | 74 | 309 | 5.0 | 13.0 | 0.00 | 0.00 | 0.00 | 29 | 1013.4 |
| 20260508161053 | 73 | 296 | 2.0 | 10.0 | 0.00 | 0.00 | 0.00 | 29 | 1013.7 |
| 20260508160019 | 74 | 250 | 3.0 | 10.0 | 0.00 | 0.00 | 0.00 | 29 | 1013.7 |
| 20260508155019 | 73 | 324 | 3.0 | 11.0 | 0.00 | 0.00 | 0.00 | 29 | 1013.8 |
| 20260508154033 | 73 | 338 | 3.0 | 13.0 | 0.00 | 0.00 | 0.00 | 29 | 1013.9 |
| 20260508153037 | 72 | 304 | 3.0 | 13.0 | 0.00 | 0.00 | 0.00 | 30 | 1014.1 |
| 20260508152046 | 72 | 284 | 1.0 | 8.0 | 0.00 | 0.00 | 0.00 | 30 | 1014.1 |
| 20260508151110 | 71 | 316 | 2.0 | 7.0 | 0.00 | 0.00 | 0.00 | 31 | 1014.3 |
| 20260508150049 | 71 | 309 | 1.0 | 9.0 | 0.00 | 0.00 | 0.00 | 31 | 1014.4 |
| 20260508143927 | 70 | 348 | 2.0 | 9.0 | 0.00 | 0.00 | 0.00 | 31 | 1014.5 |
| 20260508141817 | 69 | 280 | 1.0 | 7.0 | 0.00 | 0.00 | 0.00 | 34 | 1014.7 |
| 20260508140830 | 68 | 250 | 0.0 | 8.0 | 0.00 | 0.00 | 0.00 | 34 | 1014.7 |
| 20260508135801 | 68 | 245 | 2.0 | 8.0 | 0.00 | 0.00 | 0.00 | 33 | 1014.7 |
| 20260508134730 | 66 | 250 | 0.0 | 8.0 | 0.00 | 0.00 | 0.00 | 36 | 1014.8 |
| 20260508133736 | 65 | 279 | 2.0 | 8.0 | 0.00 | 0.00 | 0.00 | 35 | 1014.9 |
| 20260508132721 | 65 | 264 | 1.0 | 5.0 | 0.00 | 0.00 | 0.00 | 39 | 1015.0 |
| 20260508131647 | 64 | 331 | 1.0 | 4.0 | 0.00 | 0.00 | 0.00 | 39 | 1015.2 |
| 20260508130710 | 64 | 289 | 0.0 | 4.0 | 0.00 | 0.00 | 0.00 | 41 | 1015.0 |
| 20260508125649 | 63 | 309 | 1.0 | 4.0 | 0.00 | 0.00 | 0.00 | 42 | 1015.1 |
| 20260508124624 | 61 | 264 | 0.0 | 3.0 | 0.00 | 0.00 | 0.00 | 44 | 1015.1 |
| 20260508123634 | 60 | 262 | 0.0 | 1.0 | 0.00 | 0.00 | 0.00 | 47 | 1015.0 |
| 20260508121505 | 58 | 324 | 0.0 | 5.0 | 0.00 | 0.00 | 0.00 | 53 | 1014.9 |
| 20260508112034 | 46 | 320 | 0.0 | 0.0 | 0.00 | 0.00 | 0.00 | 85 | 1014.3 |
| 20260508111037 | 44 | 320 | 0.0 | 0.0 | 0.00 | 0.00 | 0.00 | 85 | 1014.2 |
| 20260508103750 | 43 | 320 | 0.0 | 0.0 | 0.00 | 0.00 | 0.00 | 86 | 1013.9 |
| 20260508102809 | 43 | 320 | 0.0 | 0.0 | 0.00 | 0.00 | 0.00 | 84 | 1013.8 |
| 20260508101742 | 43 | 320 | 0.0 | 0.0 | 0.00 | 0.00 | 0.00 | 83 | 1013.7 |
| 20260508100755 | 44 | 320 | 0.0 | 0.0 | 0.00 | 0.00 | 0.00 | 83 | 1013.6 |
| 20260508095819 | 44 | 320 | 0.0 | 0.0 | 0.00 | 0.00 | 0.00 | 81 | 1013.5 |
| 20260508092544 | 45 | 320 | 0.0 | 0.0 | 0.00 | 0.00 | 0.00 | 78 | 1013.4 |
| 20260508091522 | 46 | 320 | 0.0 | 0.0 | 0.00 | 0.00 | 0.00 | 77 | 1013.4 |
| 20260508090520 | 46 | 320 | 0.0 | 0.0 | 0.00 | 0.00 | 0.00 | 77 | 1013.3 |
| 20260508085453 | 47 | 320 | 0.0 | 0.0 | 0.00 | 0.00 | 0.00 | 80 | 1013.2 |
| 20260508083336 | 47 | 320 | 0.0 | 0.0 | 0.00 | 0.00 | 0.00 | 79 | 1013.0 |
| 20260508082334 | 47 | 320 | 0.0 | 0.0 | 0.00 | 0.00 | 0.00 | 79 | 1012.8 |
| 20260508081316 | 48 | 320 | 0.0 | 0.0 | 0.00 | 0.00 | 0.00 | 77 | 1012.8 |
| 20260508080304 | 48 | 320 | 0.0 | 0.0 | 0.00 | 0.00 | 0.00 | 78 | 1012.7 |
| 20260508075300 | 48 | 320 | 0.0 | 0.0 | 0.00 | 0.00 | 0.00 | 76 | 1012.5 |
| 20260508074302 | 49 | 320 | 0.0 | 0.0 | 0.00 | 0.00 | 0.00 | 76 | 1012.4 |
| 20260508073322 | 49 | 320 | 0.0 | 0.0 | 0.00 | 0.00 | 0.00 | 75 | 1012.3 |
| 20260508072311 | 50 | 320 | 0.0 | 0.0 | 0.00 | 0.00 | 0.00 | 76 | 1012.1 |
| 20260508070157 | 51 | 320 | 0.0 | 0.0 | 0.00 | 0.00 | 0.00 | 70 | 1011.9 |
| 20260508065210 | 52 | 320 | 0.0 | 0.0 | 0.00 | 0.00 | 0.00 | 70 | 1011.8 |
| 20260508064201 | 52 | 320 | 0.0 | 0.0 | 0.00 | 0.00 | 0.00 | 69 | 1011.6 |
| 20260508063200 | 52 | 320 | 0.0 | 0.0 | 0.00 | 0.00 | 0.00 | 69 | 1011.5 |
| 20260508062143 | 52 | 320 | 0.0 | 4.0 | 0.00 | 0.00 | 0.00 | 69 | 1011.4 |
| 20260508061205 | 51 | 322 | 0.0 | 0.0 | 0.00 | 0.00 | 0.00 | 72 | 1011.4 |
| 20260508060158 | 51 | 269 | 0.0 | 3.0 | 0.00 | 0.00 | 0.00 | 80 | 1011.4 |
| 20260508055209 | 51 | 268 | 0.0 | 0.0 | 0.00 | 0.00 | 0.00 | 81 | 1011.3 |
| 20260508054147 | 51 | 268 | 0.0 | 0.0 | 0.00 | 0.00 | 0.00 | 80 | 1011.3 |
| 20260508053139 | 52 | 268 | 0.0 | 0.0 | 0.00 | 0.01 | 0.00 | 80 | 1011.3 |
| 20260508052203 | 51 | 268 | 0.0 | 4.0 | 0.00 | 0.01 | 0.00 | 81 | 1011.3 |
| 20260508051221 | 51 | 269 | 0.0 | 4.0 | 0.00 | 0.01 | 0.00 | 82 | 1011.2 |
| 20260508045059 | 52 | 265 | 0.0 | 0.0 | 0.00 | 0.01 | 0.00 | 83 | 1011.0 |
| 20260508044038 | 52 | 265 | 0.0 | 0.0 | 0.00 | 0.01 | 0.00 | 84 | 1010.9 |
| 20260508043027 | 52 | 265 | 0.0 | 1.0 | 0.00 | 0.02 | 0.00 | 83 | 1010.8 |
| 20260508040925 | 52 | 264 | 0.0 | 0.0 | 0.00 | 0.04 | 0.00 | 82 | 1010.6 |
| 20260508035920 | 53 | 264 | 0.0 | 0.0 | 0.00 | 0.04 | 0.04 | 81 | 1010.5 |
| 20260508034937 | 52 | 280 | 0.0 | 3.0 | 0.00 | 0.04 | 0.04 | 81 | 1010.3 |
| 20260508033944 | 53 | 263 | 0.0 | 4.0 | 0.00 | 0.04 | 0.04 | 80 | 1010.3 |
| 20260508031757 | 53 | 251 | 0.0 | 4.0 | 0.00 | 0.04 | 0.04 | 78 | 1010.3 |
| 20260508030752 | 53 | 223 | 0.0 | 1.0 | 0.00 | 0.04 | 0.04 | 77 | 1010.2 |
| 20260508025810 | 53 | 223 | 0.0 | 0.0 | 0.00 | 0.04 | 0.04 | 76 | 1010.2 |
| 20260508024803 | 54 | 224 | 0.0 | 1.0 | 0.00 | 0.04 | 0.04 | 75 | 1010.2 |
| 20260508023821 | 54 | 229 | 0.0 | 3.0 | 0.00 | 0.04 | 0.04 | 74 | 1010.2 |
| 20260508022810 | 54 | 229 | 0.0 | 3.0 | 0.00 | 0.04 | 0.04 | 74 | 1010.2 |
| 20260508021824 | 54 | 228 | 0.0 | 2.0 | 0.00 | 0.04 | 0.04 | 73 | 1010.1 |
| 20260508020757 | 54 | 257 | 0.0 | 2.0 | 0.00 | 0.04 | 0.04 | 73 | 1010.0 |
| 20260508015808 | 54 | 210 | 1.0 | 4.0 | 0.00 | 0.04 | 0.04 | 73 | 1010.1 |
| 20260508014743 | 54 | 223 | 0.0 | 5.0 | 0.00 | 0.04 | 0.04 | 72 | 1010.0 |
| 20260508012602 | 55 | 171 | 0.0 | 4.0 | 0.00 | 0.04 | 0.04 | 71 | 1009.8 |
| 20260508011602 | 55 | 209 | 0.0 | 1.0 | 0.00 | 0.04 | 0.04 | 70 | 1009.7 |
| 20260508005411 | 56 | 202 | 1.0 | 6.0 | 0.00 | 0.04 | 0.04 | 69 | 1009.4 |
| 20260508003224 | 56 | 182 | 1.0 | 8.0 | 0.00 | 0.04 | 0.04 | 67 | 1009.1 |
| 20260508001033 | 57 | 173 | 2.0 | 6.0 | 0.00 | 0.04 | 0.04 | 65 | 1008.9 |
| 20260507235958 | 57 | 166 | 3.0 | 5.0 | 0.00 | 0.04 | 0.04 | 64 | 1008.8 |
| 20260507233847 | 58 | 187 | 2.0 | 8.0 | 0.00 | 0.04 | 0.04 | 61 | 1008.4 |
| 20260507232858 | 59 | 109 | 1.0 | 9.0 | 0.00 | 0.04 | 0.04 | 60 | 1008.3 |
| 20260507231855 | 59 | 215 | 2.0 | 9.0 | 0.00 | 0.04 | 0.04 | 60 | 1008.2 |
| 20260507230911 | 60 | 252 | 3.0 | 9.0 | 0.00 | 0.04 | 0.04 | 59 | 1008.1 |
| 20260507225918 | 60 | 199 | 2.0 | 10.0 | 0.00 | 0.04 | 0.04 | 58 | 1008.0 |
| 20260507224854 | 61 | 264 | 3.0 | 10.0 | 0.00 | 0.04 | 0.04 | 56 | 1007.9 |
| 20260507223851 | 61 | 202 | 3.0 | 10.0 | 0.00 | 0.04 | 0.04 | 54 | 1007.8 |
| 20260507222900 | 61 | 215 | 3.0 | 10.0 | 0.00 | 0.04 | 0.04 | 53 | 1007.7 |
| 20260507221853 | 62 | 238 | 2.0 | 7.0 | 0.00 | 0.04 | 0.04 | 53 | 1007.6 |
| 20260507220911 | 62 | 195 | 4.0 | 11.0 | 0.00 | 0.04 | 0.04 | 53 | 1007.6 |
| 20260507215839 | 62 | 196 | 3.0 | 11.0 | 0.00 | 0.04 | 0.04 | 53 | 1007.5 |
| 20260507214816 | 61 | 158 | 4.0 | 10.0 | 0.00 | 0.04 | 0.04 | 55 | 1007.5 |
| 20260507212656 | 62 | 166 | 3.0 | 12.0 | 0.00 | 0.04 | 0.04 | 53 | 1007.7 |
| 20260507211652 | 62 | 237 | 4.0 | 12.0 | 0.00 | 0.04 | 0.04 | 53 | 1007.8 |
| 20260507210637 | 63 | 128 | 4.0 | 10.0 | 0.00 | 0.04 | 0.04 | 53 | 1007.7 |
| 20260507205639 | 63 | 189 | 4.0 | 10.0 | 0.00 | 0.04 | 0.04 | 53 | 1007.7 |
| 20260507204647 | 63 | 255 | 4.0 | 10.0 | 0.00 | 0.04 | 0.04 | 51 | 1007.6 |
| 20260507203651 | 64 | 180 | 3.0 | 11.0 | 0.00 | 0.04 | 0.04 | 50 | 1007.7 |
| 20260507202649 | 63 | 150 | 4.0 | 11.0 | 0.00 | 0.04 | 0.04 | 50 | 1007.6 |
| 20260507200540 | 63 | 225 | 3.0 | 8.0 | 0.00 | 0.04 | 0.04 | 51 | 1007.7 |
| 20260507195554 | 63 | 279 | 4.0 | 10.0 | 0.00 | 0.04 | 0.04 | 51 | 1007.6 |
| 20260507194606 | 63 | 186 | 3.0 | 10.0 | 0.00 | 0.04 | 0.04 | 50 | 1007.5 |
| 20260507193629 | 63 | 142 | 2.0 | 11.0 | 0.00 | 0.04 | 0.04 | 49 | 1007.7 |
| 20260507192629 | 64 | 191 | 2.0 | 11.0 | 0.00 | 0.04 | 0.04 | 48 | 1008.0 |
| 20260507191613 | 65 | 134 | 2.0 | 6.0 | 0.00 | 0.04 | 0.04 | 45 | 1008.2 |
| 20260507185455 | 65 | 258 | 1.0 | 7.0 | 0.00 | 0.04 | 0.04 | 42 | 1008.5 |
| 20260507184449 | 63 | 159 | 1.0 | 4.0 | 0.00 | 0.04 | 0.04 | 43 | 1008.4 |
| 20260507183443 | 62 | 111 | 2.0 | 6.0 | 0.00 | 0.04 | 0.04 | 44 | 1008.6 |
| 20260507182442 | 62 | 165 | 2.0 | 6.0 | 0.00 | 0.04 | 0.04 | 44 | 1008.9 |
| 20260507181455 | 62 | 82 | 3.0 | 6.0 | 0.00 | 0.04 | 0.04 | 44 | 1008.9 |
| 20260507180454 | 62 | 89 | 1.0 | 5.0 | 0.00 | 0.04 | 0.04 | 45 | 1009.2 |
| 20260507175510 | 62 | 144 | 0.0 | 0.0 | 0.00 | 0.04 | 0.04 | 45 | 1009.3 |
| 20260507174450 | 61 | 84 | 2.0 | 5.0 | 0.00 | 0.04 | 0.04 | 46 | 1009.3 |
| 20260507173427 | 62 | 115 | 0.0 | 3.0 | 0.00 | 0.04 | 0.04 | 46 | 1009.5 |
| 20260507172424 | 61 | 105 | 0.0 | 1.0 | 0.00 | 0.04 | 0.04 | 48 | 1009.9 |
| 20260507171353 | 60 | 112 | 0.0 | 5.0 | 0.00 | 0.04 | 0.04 | 47 | 1010.0 |
| 20260507170353 | 60 | 93 | 0.0 | 4.0 | 0.00 | 0.04 | 0.04 | 47 | 1010.2 |
| 20260507165345 | 60 | 127 | 0.0 | 6.0 | 0.00 | 0.04 | 0.04 | 47 | 1010.5 |
| 20260507164358 | 60 | 95 | 1.0 | 6.0 | 0.00 | 0.04 | 0.04 | 46 | 1010.3 |